Bay City, TX

9:57 AM CDT on May 27, 2018 (GMT -0500)
Bay City

Weather History for KBYY - May, 2013

Change the Weather History Date:

Wednesday, May 29, 2013

  Actual Average (KLBX) Record (KLBX)
Temperature  
Mean Temperature 81 °F -  
Max Temperature 85 °F 86 °F 93 °F (1998)
Min Temperature 77 °F 69 °F 59 °F (2003)
Cooling Degree Days 16    
Growing Degree Days 31 (Base 50)    
Moisture  
Dew Point 74 °F    
Average Humidity 80    
Maximum Humidity 89    
Minimum Humidity 67    
Precipitation  
Precipitation 0.00 in - - ()
Sea Level Pressure  
Sea Level Pressure 29.85 in    
Wind  
Wind Speed 13 mph (SE)    
Max Wind Speed 22 mph    
Max Gust Speed 28 mph    
Visibility 10 miles    
Events      
Averages and records for this station are not official NWS values.
T = Trace of Precipitation, MM = Missing Value Source: NWS Daily Summary

Daily Weather History Graph

Daily Weather History Graph

Search for Another Location

Airport or City:

Astronomy

May. 29, 2013 Rise Set
Actual Time 6:25 AM CDT 8:16 PM CDT
Civil Twilight 5:59 AM CDT 8:42 PM CDT
Nautical Twilight 5:27 AM CDT 9:14 PM CDT
Astronomical Twilight 4:53 AM CDT 9:48 PM CDT
Moon No Moon Rise 11:13 AM CDT (5/29)
Length of Visible Light 14h 43m
Length of Day
13h 50m
Waning Gibbous, 73% of the Moon is Illuminated
May 29
Waning Gibbous
May 31
Last Quarter
Jun 8
New
Jun 16
First Quarter
Jun 23
Full

Hourly Weather History & Observations

Time (CDT) Temp. Heat Index Dew Point Humidity Pressure Visibility Wind Dir Wind Speed Gust Speed Precip Events Conditions
12:15 AM 78.3 °F - 73.0 °F 84% 29.88 in 10.0 mi SE 13.8 mph 17.3 mph N/A   Scattered Clouds
12:35 AM 78.3 °F - 72.7 °F 83% 29.88 in 10.0 mi SE 12.7 mph - N/A   Scattered Clouds
12:55 AM 78.1 °F - 72.7 °F 83% 29.88 in 10.0 mi SE 11.5 mph - N/A   Scattered Clouds
1:15 AM 78.3 °F - 72.5 °F 82% 29.88 in 10.0 mi SE 10.4 mph 16.1 mph N/A   Mostly Cloudy
1:35 AM 78.3 °F - 72.5 °F 82% 29.87 in 10.0 mi SE 12.7 mph 20.7 mph N/A   Scattered Clouds
1:55 AM 78.3 °F - 72.5 °F 82% 29.87 in 10.0 mi SE 11.5 mph - N/A   Scattered Clouds
2:15 AM 78.4 °F - 72.5 °F 82% 29.88 in 10.0 mi SE 10.4 mph - N/A   Scattered Clouds
2:35 AM 78.4 °F - 72.7 °F 82% 29.88 in 10.0 mi SE 10.4 mph - N/A   Mostly Cloudy
2:55 AM 78.6 °F - 72.9 °F 82% 29.88 in 10.0 mi SE 9.2 mph - N/A   Mostly Cloudy
3:15 AM 78.6 °F - 73.4 °F 84% 29.88 in 10.0 mi SE 8.1 mph - N/A   Scattered Clouds
3:35 AM 78.4 °F - 73.4 °F 84% 29.87 in 10.0 mi SE 10.4 mph - N/A   Scattered Clouds
3:55 AM 78.4 °F - 73.4 °F 84% 29.88 in 10.0 mi SE 10.4 mph - N/A   Mostly Cloudy
4:15 AM 78.6 °F - 73.4 °F 84% 29.88 in 10.0 mi SE 8.1 mph - N/A   Mostly Cloudy
4:35 AM 78.3 °F - 73.6 °F 85% 29.87 in 10.0 mi SE 9.2 mph - N/A   Scattered Clouds
4:55 AM 78.3 °F - 73.4 °F 85% 29.87 in 10.0 mi SE 11.5 mph - N/A   Scattered Clouds
5:15 AM 78.1 °F - 73.4 °F 85% 29.86 in 10.0 mi SE 10.4 mph - N/A   Scattered Clouds
5:35 AM 78.1 °F - 73.4 °F 85% 29.86 in 10.0 mi SE 10.4 mph - N/A   Scattered Clouds
5:55 AM 78.1 °F - 73.8 °F 86% 29.85 in 10.0 mi SE 9.2 mph - N/A   Scattered Clouds
6:15 AM 78.1 °F - 73.8 °F 86% 29.85 in 10.0 mi SE 9.2 mph - N/A   Scattered Clouds
6:35 AM 78.1 °F - 73.9 °F 87% 29.85 in 10.0 mi SE 9.2 mph - N/A   Scattered Clouds
6:55 AM 77.9 °F - 73.9 °F 88% 29.86 in 10.0 mi SE 8.1 mph - N/A   Scattered Clouds
7:15 AM 77.9 °F - 74.1 °F 88% 29.86 in 10.0 mi SE 8.1 mph - N/A   Scattered Clouds
7:35 AM 78.6 °F - 74.5 °F 87% 29.86 in 10.0 mi SSE 8.1 mph - N/A   Mostly Cloudy
7:55 AM 79.2 °F - 74.7 °F 86% 29.86 in 10.0 mi SE 10.4 mph - N/A   Mostly Cloudy
8:15 AM 79.9 °F - 74.8 °F 85% 29.86 in 10.0 mi SSE 13.8 mph 17.3 mph N/A   Scattered Clouds
8:35 AM 80.6 °F 86.0 °F 75.0 °F 83% 29.86 in 10.0 mi SSE 15.0 mph 18.4 mph N/A   Mostly Cloudy
8:55 AM 81.5 °F 87.8 °F 75.2 °F 81% 29.87 in 10.0 mi SSE 12.7 mph - N/A   Mostly Cloudy
9:15 AM 82.4 °F 89.2 °F 74.8 °F 78% 29.88 in 10.0 mi SSE 15.0 mph 23.0 mph N/A   Mostly Cloudy
9:35 AM 82.2 °F 88.8 °F 74.8 °F 78% 29.88 in 10.0 mi SSE 15.0 mph 20.7 mph N/A   Overcast
9:55 AM 82.6 °F 89.7 °F 75.0 °F 78% 29.88 in 10.0 mi SSE 16.1 mph 19.6 mph N/A   Mostly Cloudy
10:15 AM 82.4 °F 89.2 °F 75.0 °F 78% 29.87 in 10.0 mi SSE 16.1 mph 23.0 mph N/A   Mostly Cloudy
10:35 AM 82.6 °F 89.7 °F 75.0 °F 78% 29.88 in 10.0 mi SSE 13.8 mph 23.0 mph N/A   Overcast
10:55 AM 83.1 °F 90.4 °F 74.8 °F 76% 29.88 in 10.0 mi SSE 18.4 mph 21.9 mph N/A   Overcast
11:15 AM 83.7 °F 91.3 °F 74.8 °F 75% 29.88 in 10.0 mi SSE 15.0 mph 25.3 mph N/A   Mostly Cloudy
11:35 AM 83.7 °F 91.0 °F 74.5 °F 74% 29.87 in 10.0 mi SSE 15.0 mph 26.5 mph N/A   Mostly Cloudy
11:55 AM 83.8 °F 91.1 °F 74.5 °F 73% 29.87 in 10.0 mi SSE 16.1 mph 26.5 mph N/A   Mostly Cloudy
12:15 PM 84.0 °F 91.2 °F 74.1 °F 72% 29.87 in 10.0 mi SSE 19.6 mph 27.6 mph N/A   Overcast
12:35 PM 84.6 °F 91.7 °F 73.8 °F 70% 29.86 in 10.0 mi SSE 21.9 mph 27.6 mph N/A   Mostly Cloudy
12:55 PM 85.3 °F 92.6 °F 73.6 °F 68% 29.86 in 10.0 mi SSE 19.6 mph 25.3 mph N/A   Mostly Cloudy
1:15 PM 85.3 °F 92.6 °F 73.6 °F 68% 29.86 in 10.0 mi SSE 13.8 mph 24.2 mph N/A   Mostly Cloudy
1:35 PM 85.5 °F 92.6 °F 73.6 °F 67% 29.85 in 10.0 mi SSE 17.3 mph 23.0 mph N/A   Mostly Cloudy
1:55 PM 85.3 °F 92.2 °F 73.4 °F 67% 29.85 in 10.0 mi SSE 18.4 mph 24.2 mph N/A   Mostly Cloudy
2:15 PM 84.7 °F 91.7 °F 73.6 °F 69% 29.84 in 10.0 mi SE 20.7 mph 24.2 mph N/A   Mostly Cloudy
2:35 PM 84.6 °F 91.4 °F 73.6 °F 69% 29.83 in 10.0 mi SE 17.3 mph 26.5 mph N/A   Mostly Cloudy
2:55 PM 84.4 °F 91.0 °F 73.4 °F 69% 29.84 in 10.0 mi SE 19.6 mph 24.2 mph N/A   Mostly Cloudy
3:15 PM 84.0 °F 91.2 °F 73.9 °F 72% 29.83 in 10.0 mi SE 17.3 mph 25.3 mph N/A   Mostly Cloudy
3:35 PM 83.5 °F 90.3 °F 74.1 °F 73% 29.83 in 10.0 mi SE 18.4 mph 23.0 mph N/A   Overcast
3:55 PM 83.5 °F 90.6 °F 74.3 °F 74% 29.83 in 10.0 mi SE 16.1 mph 24.2 mph N/A   Overcast
4:15 PM 83.3 °F 90.2 °F 74.3 °F 74% 29.81 in 10.0 mi SE 16.1 mph 24.2 mph N/A   Mostly Cloudy
4:35 PM 83.5 °F 90.3 °F 74.1 °F 73% 29.81 in 10.0 mi SE 13.8 mph 25.3 mph N/A   Mostly Cloudy
4:55 PM 83.3 °F 90.2 °F 74.3 °F 74% 29.81 in 10.0 mi SE 12.7 mph - N/A   Mostly Cloudy
5:15 PM 83.1 °F 90.1 °F 74.3 °F 75% 29.80 in 10.0 mi SE 16.1 mph 23.0 mph N/A   Overcast
5:35 PM 82.9 °F 89.7 °F 74.3 °F 75% 29.81 in 10.0 mi SE 12.7 mph 16.1 mph N/A   Overcast
5:55 PM 82.6 °F 89.4 °F 74.7 °F 77% 29.80 in 10.0 mi SE 13.8 mph 19.6 mph N/A   Mostly Cloudy
6:15 PM 82.9 °F 89.9 °F 74.8 °F 76% 29.81 in 10.0 mi SE 12.7 mph - N/A   Mostly Cloudy
6:35 PM 83.7 °F 91.3 °F 74.8 °F 75% 29.80 in 10.0 mi SE 13.8 mph 19.6 mph N/A   Mostly Cloudy
6:55 PM 83.5 °F 90.6 °F 74.5 °F 74% 29.80 in 10.0 mi SE 11.5 mph - N/A   Mostly Cloudy
7:15 PM 82.8 °F 89.5 °F 74.7 °F 76% 29.81 in 10.0 mi SE 13.8 mph 17.3 mph N/A   Mostly Cloudy
7:35 PM 82.2 °F 88.5 °F 74.5 °F 77% 29.81 in 10.0 mi SE 13.8 mph - N/A   Mostly Cloudy
7:55 PM 81.1 °F 86.8 °F 74.5 °F 80% 29.81 in 10.0 mi SSE 12.7 mph 18.4 mph N/A   Scattered Clouds
8:15 PM 80.8 °F 86.1 °F 74.5 °F 81% 29.82 in 10.0 mi SE 11.5 mph 16.1 mph N/A   Scattered Clouds
8:35 PM 79.9 °F - 74.7 °F 84% 29.82 in 10.0 mi SE 11.5 mph - N/A   Clear
8:55 PM 79.5 °F - 74.8 °F 86% 29.82 in 10.0 mi SE 10.4 mph - N/A   Scattered Clouds
9:15 PM 79.2 °F - 74.7 °F 86% 29.82 in 10.0 mi SE 13.8 mph 18.4 mph N/A   Clear
9:35 PM 79.0 °F - 74.7 °F 87% 29.83 in 10.0 mi SE 10.4 mph - N/A   Scattered Clouds
9:55 PM 79.0 °F - 74.5 °F 86% 29.83 in 10.0 mi SE 9.2 mph 17.3 mph N/A   Scattered Clouds
10:15 PM 79.0 °F - 74.7 °F 87% 29.83 in 10.0 mi SE 9.2 mph - N/A   Scattered Clouds
10:35 PM 79.0 °F - 75.0 °F 88% 29.84 in 10.0 mi SE 10.4 mph - N/A   Scattered Clouds
10:55 PM 79.0 °F - 75.0 °F 88% 29.85 in 10.0 mi SE 10.4 mph 16.1 mph N/A   Clear
11:15 PM 78.8 °F - 74.8 °F 88% 29.84 in 10.0 mi SE 9.2 mph - N/A   Clear
11:35 PM 78.8 °F - 75.2 °F 89% 29.85 in 10.0 mi SE 10.4 mph - N/A   Scattered Clouds
11:55 PM 78.8 °F - 75.0 °F 88% 29.85 in 10.0 mi SE 8.1 mph - N/A   Scattered Clouds